Regional Weather Roundup
Issued by NWS

Home | Current Version | Previous Version | Graphics & Text | Print | Product List | Glossary On
Versions: 1 2 3 4 5 6 7 8 9 10 11 12 13 14 15 16 17 18 19 20 21 22 23 24 25 26 27 28 29 30 31 32 33 34 35 36 37 38 39 40 41 42 43 44 45 46 47 48 49 50
684
ASUS43 KMPX 201501
RWRMN
WEATHER ROUNDUP FOR MINNESOTA
NATIONAL WEATHER SERVICE TWIN CITIES/CHANHASSEN MN
1000 AM CDT THU JUL 20 2017


NOTE: "FAIR" INDICATES FEW OR NO CLOUDS BELOW 12,000 FEET WITH NO
SIGNIFICANT WEATHER AND/OR OBSTRUCTIONS TO VISIBILITY. N/A MEANS
CURRENT SKY AND/OR WEATHER CONDITIONS ARE NOT AVAILABLE.

MNZ060>063-068>070-201600-
   Twin Cities Metro

CITY           SKY/WX    TMP DP  RH WIND       PRES   REMARKS
TWIN CITIES    PTSUNNY   75  69  81 CALM      30.02R
ST PAUL        CLOUDY    76  70  82 CALM      30.01F
CRYSTAL        CLOUDY    75  67  76 VRB5      30.00S
BLAINE         PTSUNNY   72  72 100 W3        30.02R
LAKEVILLE      CLOUDY    70  70 100 S3        30.02S FOG
EDEN PRAIRIE   CLOUDY    75  69  81 S3        30.01R
SOUTH ST PAUL  MOSUNNY   73  73  98 SE3       30.01S FOG
LAKE ELMO      FAIR      72  70  94 N3        30.02F
$$
MNZ001>005-007-008-013>017-022>024-027-028-201600-
   Northwest Minnesota

CITY           SKY/WX    TMP DP  RH WIND       PRES   REMARKS
BEMIDJI        MOSUNNY   68  63  83 NW5       30.03S
HALLOCK        SUNNY     70  59  68 E5        30.01F
ROSEAU         SUNNY     68  57  68 CALM      30.03R
WARROAD        SUNNY     68  55  64 N6        30.03S
CROOKSTON      SUNNY     72  63  73 CALM      30.02F
FOSSTON        SUNNY     72  66  83 E3        30.03S
DETROIT LAKES  CLOUDY    70  64  83 CALM      30.05R
MOORHEAD       MOSUNNY   72  64  78 NE6       30.03S
PARK RAPIDS    CLOUDY    74  63  68 VRB3      30.03R
MAHNOMEN       FAIR      71  64  78 N5        30.03F
$$
MNZ006-009>011-018-025>026-201600-
   North Central Minnesota

CITY           SKY/WX    TMP DP  RH WIND       PRES   REMARKS
BAUDETTE       SUNNY     70  56  61 NW8       30.01R
FLAG ISLAND    SUNNY     66  54  63 N6        30.01S
INTL FALLS     SUNNY     72  58  61 NW10      29.99S
WASKISH        PTSUNNY   72  59  64 W3        30.02S
BIG FORK       PTSUNNY   70  63  78 CALM      30.02S
LONGVILLE      CLOUDY    73  66  78 W6        30.02S
GRAND RAPIDS   SUNNY     73  66  78 NW6       30.03R
CRANE LAKE     SUNNY     70  61  73 NW7       29.99S
ORR            MOSUNNY   70  61  73 NW6       29.98R
COOK           SUNNY     72  63  73 W6        30.00R
WALKER         FAIR      72  62  70 NW5       30.03R
$$
MNZ012-019>021-037-201600-
   Northeast Minnesota

CITY           SKY/WX    TMP DP  RH WIND       PRES   REMARKS
DULUTH         MOSUNNY   73  65  75 NW10      29.99S
ELY            PTSUNNY   72  63  73 NW5       29.99R
HIBBING        SUNNY     73  66  78 NW6       30.00S
EVELETH        MOSUNNY   73  60  65 NW5       30.01S
DULUTH HARBOR  SUNNY     73  66  78 SW3       29.97F
TWO HARBORS    SUNNY     79  66  65 CALM      29.96S
SILVER BAY     SUNNY     77  64  65 NW5       29.95R
GRAND MARAIS     N/A     61  56  83 SW8       29.92R
G MARAIS ARPRT PTSUNNY   72  59  64 W6        29.98R
$$
MNZ029>031-032-039>041-046>048-054>057-064-201600-
   West Central Minnesota

CITY           SKY/WX    TMP DP  RH WIND       PRES   REMARKS
FERGUS FALLS   SUNNY     72  72 100 CALM      30.02R
WHEATON        CLOUDY    73  68  83 SW3       30.03S
MORRIS         PTSUNNY   77  70  78 CALM      30.02S
ALEXANDRIA     MOSUNNY   73  68  84 CALM      30.05S
ELBOW LAKE     CLOUDY    68  68 100 SE3       30.04R FOG
WADENA         SUNNY     73  68  83 NE5       30.03S
GLENWOOD       PTSUNNY   73  66  78 SW5       30.05S
APPLETON       PTSUNNY   75  68  78 CALM      30.03R
BENSON         MOSUNNY   75  66  73 CALM      30.05R
ORTONVILLE     CLOUDY    73  70  88 CALM      30.04R
MADISON        PTSUNNY   75  75 100 CALM      30.04R
WILLMAR        FAIR      75  68  78 CALM      30.05R
$$
MNZ033>034-036-042>043-049>051-058-059-201600-
   Central Minnesota

CITY           SKY/WX    TMP DP  RH WIND       PRES   REMARKS
ST CLOUD       MOSUNNY   74  68  81 N9        30.02S
SAUK CENTRE    FAIR      73  67  82 CALM      30.05R
PAYNESVILLE    CLOUDY    75  68  79 CALM      30.05R
AITKIN         SUNNY     72  66  83 CALM      30.01S
PINE RIVER     SUNNY     72  64  78 CALM      30.06R
BRAINERD       SUNNY     73  65  75 CALM      30.03S
STAPLES        CLOUDY    68  66  94 CALM      30.03S
LONG PRAIRIE   FAIR      72  64  78 CALM      30.04S
LITTLE FALLS   CLOUDY    72  64  78 CALM      30.04R
LITCHFIELD     MOSUNNY   73  70  88 CALM      30.05R
BUFFALO        CLOUDY    72  68  87 CALM      30.04S
MAPLE LAKE     MOSUNNY   75  69  83 CALM      30.05R
HUTCHINSON     SUNNY     75  70  85 CALM      30.04R
$$
MNZ037-044-045-052-053-201600-
   East Central Minnesota

CITY           SKY/WX    TMP DP  RH WIND       PRES   REMARKS
PRINCETON      MOSUNNY   73  68  83 CALM      30.03S
MORA           MOSUNNY   73  64  73 NW5       30.04R
CAMBRIDGE      MOSUNNY   73  66  78 W5        30.01S
RUSH CITY      CLOUDY    74  66  77 CALM      30.02S HAZE
MOOSE LAKE     SUNNY     73  64  73 NW3       30.00R
HINCKLEY       FAIR      75  68  78 N6        30.01S
CLOQUET        SUNNY     73  64  73 NW6       30.00F
MCGREGOR       SUNNY     72  64  78 CALM      30.02S
$$
MNZ071>073-080-081-089-090-097-098-201600-
   Southwest Minnesota

CITY           SKY/WX    TMP DP  RH WIND       PRES   REMARKS
MONTEVIDEO     CLOUDY    75  73  94 CALM      30.04S
GRANITE FALLS  MOSUNNY   74  70  86 N7        30.05S
CANBY          CLOUDY    76  68  75 CALM      30.05S
MARSHALL       CLOUDY    74  69  85 NE3       30.03F
REDWOOD FALLS  CLOUDY    74  68  81 VRB3      30.02R
OLIVIA         CLOUDY    73  70  88 N5        30.03R
PIPESTONE      MOSUNNY   79  66  65 E9        30.04R
WINDOM         PTSUNNY   73  68  83 NE9       30.04S
WORTHINGTON    CLOUDY    76  68  76 E12       30.03F
JACKSON        PTSUNNY   73  68  83 CALM      30.03F
TRACY          PTSUNNY   75  70  85 E5        30.04S
SLAYTON        HVY RAIN  73  66  78 E8        30.05F
$$
MNZ065>067-074>077-082>085-091>093-201600-
   South Central Minnesota

CITY           SKY/WX    TMP DP  RH WIND       PRES   REMARKS
MANKATO        CLOUDY    73  70  90 E6        30.03S
NEW ULM        CLOUDY    72  68  88 E3        30.03S
ST JAMES       CLOUDY    73  70  88 CALM      30.04S
FAIRMONT       MOSUNNY   77  72  84 CALM      30.01F
GLENCOE        MOSUNNY   72  73 100 CALM      30.03R
FARIBAULT      CLOUDY    73  70  88 CALM      30.03R
OWATONNA       PTSUNNY   75  72  88 E3        30.03
WASECA         CLOUDY    72  70  94 CALM      30.05R FOG
ALBERT LEA     CLOUDY    75  72  88 E7        30.02R
$$
MNZ078>079-086>088-094>096-201600-
   Southeast Minnesota

CITY           SKY/WX    TMP DP  RH WIND       PRES   REMARKS
ROCHESTER      SUNNY     75  71  87 CALM      30.03R
RED WING       CLOUDY    75  70  83 CALM      30.00S
STANTON        CLOUDY    74  69  85 CALM      30.01S
DODGE CENTER   MOSUNNY   75  70  83 CALM      30.04R
WINONA         SUNNY     73  68  83 CALM      30.02R
AUSTIN         CLOUDY    75  68  78 E8        30.02S
PRESTON        CLOUDY    74  67  81 CALM      30.03S
$$
ABBREVIATIONS USED IN REMARKS
   TC - TEMPERATURES IN CELSIUS
  WCI - WIND CHILL INDEX
   HX - HEAT INDEX
  VSB - VISIBILITY
$$




USA.gov is the U.S. government's official web portal to all federal, state and local government web resources and services.